This is the latest recevied weather packets stored in our database for station/object W0AVQ. If no packets are shown the sender has not sent any weather packets the latest 10 day(s).
| Time | Temp. | Humidity | Pressure | Rain* | Wind** | Luminosity | Snow |
|---|---|---|---|---|---|---|---|
| 1777386188 | 18.33° C | 84% | 1018.1 hPa | 0 mm | - | 189 W/m² | - |
| 1777385886 | 18.33° C | 85% | 1017.8 hPa | 0 mm | - | 148 W/m² | - |
| 1777385582 | 18.33° C | 84% | 1018.2 hPa | 0 mm | - | 129 W/m² | - |
| 1777385280 | 18.89° C | 84% | 1018 hPa | 0 mm | - | 134 W/m² | - |
| 1777384975 | 18.33° C | 88% | 1017.9 hPa | 0 mm | - | 133 W/m² | - |
| 1777384673 | 17.22° C | 90% | 1017.9 hPa | 0 mm | - | 110 W/m² | - |
| 1777384372 | 17.78° C | 90% | 1017.8 hPa | 0 mm | - | 81 W/m² | - |
| 1777384068 | 17.78° C | 92% | 1018.2 hPa | 0 mm | - | 83 W/m² | - |
| 1777383765 | 17.22° C | 93% | 1017.8 hPa | 0 mm | - | 110 W/m² | - |
| 1777383461 | 16.67° C | 95% | 1017.9 hPa | 0 mm | - | 74 W/m² | - |
| 1777383157 | 16.11° C | 96% | 1017.6 hPa | 0 mm | - | 78 W/m² | - |
| 1777382854 | 15.56° C | 98% | 1017.9 hPa | 0 mm | - | 117 W/m² | - |
| 1777382550 | 15.56° C | 99% | 1017.9 hPa | 0 mm | - | 101 W/m² | - |
| 1777382246 | 15.56° C | 99% | 1017.7 hPa | 0 mm | - | 88 W/m² | - |
| 1777381942 | 15.56° C | 99% | 1017.7 hPa | 0 mm | - | 60 W/m² | - |
| 1777381642 | 15.56° C | 99% | 1018 hPa | 0 mm | - | 64 W/m² | - |
| 1777381338 | 16.11° C | 99% | 1018 hPa | 0 mm | - | 75 W/m² | - |
| 1777381035 | 16.11° C | 99% | 1017.9 hPa | 0 mm | - | 64 W/m² | - |
| 1777380731 | 15.56° C | 99% | 1017.8 hPa | 0 mm | - | 89 W/m² | - |
| 1777380428 | 15.56° C | 99% | 1017.8 hPa | 0 mm | - | 79 W/m² | - |
| 1777380125 | 15.56° C | 99% | 1017.5 hPa | 0 mm | - | 59 W/m² | - |
| 1777379821 | 15.56° C | 99% | 1017.2 hPa | 0 mm | - | 42 W/m² | - |
| 1777379516 | 15.56° C | 99% | 1017.5 hPa | 0 mm | - | 43 W/m² | - |
| 1777379211 | 16.11° C | 99% | 1017.6 hPa | 0 mm | - | 39 W/m² | - |
| 1777378907 | 16.11° C | 99% | 1017.4 hPa | 0 mm | - | 36 W/m² | - |
* Rain latest hour (hover to see other rain measurements)
** Current wind speed in m/s (hover to see current wind gust speed)